Location: Hall+in+Tirol
(47.2830°N, 11.5170°E)
Time: 18:31:50
(UTC+02:00)

Amateur Radio Satellites - All Passes

Search period start: 28 May 2017 18:01
Search period end: 29 May 2017 18:01
Location: Hall+in+Tirol, 47.2830°N, 11.5170°E

Satellite Date Start Highest point End Downlink Frequencies (MHz)
Time Altitude Azimuth
MOZHAYETS 4 28 May 18:09:14 18:12:38 20° 298° (WNW) 18:16:02
XW-2D 28 May 18:12:15 18:15:59 57° 74° (ENE) 18:19:46 145.860 - 145.880
ITUPSAT 1 28 May 18:12:29 18:15:02 14° 304° (WNW) 18:17:36 437.325
PCSat 28 May 18:15:16 18:18:11 15° 104° (ESE) 18:21:06 145.827
AO-7 28 May 18:19:47 18:21:54 11° 278° (W) 18:24:03 .
XW-2B 28 May 18:20:11 18:23:59 68° 75° (ENE) 18:27:50 145.730 - 145.750
CUTE 1.7 + AOD 2 28 May 18:20:47 18:22:55 14° 59° (ENE) 18:25:04 437.475
NUDT-PHONESAT 28 May 18:24:26 18:28:07 59° 73° (ENE) 18:31:49 437.300
XW-2F 28 May 18:31:22 18:35:10 89° 77° (ENE) 18:39:02 145.980 - 146.000
XW-2C 28 May 18:33:56 18:37:45 82° 255° (WSW) 18:41:38 145.795 - 145.815
KAITUO 1B 28 May 18:35:38 18:39:24 82° 76° (ENE) 18:43:14 145.475/437.950
DOVE 4 28 May 18:46:58 18:51:09 36° 263° (W) 18:55:10 437.250
KKS-1 28 May 18:47:33 18:51:45 43° 291° (WNW) 18:55:57 437.445
CUBESAT XI-V 28 May 18:59:56 19:03:57 29° 294° (WNW) 19:07:56 437.345
SEEDS 28 May 19:04:44 19:08:08 23° 65° (ENE) 19:11:32 437.485
STARS 28 May 19:12:49 19:17:05 52° 289° (WNW) 19:21:21 437.465
LilacSat-2 28 May 19:15:02 19:18:20 27° 265° (W) 19:21:42 437.200
CUBEBUG 2 28 May 19:17:35 19:20:57 24° 65° (ENE) 19:24:24 437.445
UWE-3 28 May 19:24:14 19:27:09 18° 62° (ENE) 19:30:08 435.000/436.395/437.385
STRAND 1 28 May 19:32:45 19:36:03 17° 89° (E) 19:39:22 437.568
CUTE-I 28 May 19:33:31 19:38:12 32° 265° (W) 19:42:55 437.470
HO-68 28 May 19:39:38 19:46:50 89° 72° (ENE) 19:54:06 435.675
XW-2D 28 May 19:48:46 19:50:32 13° 271° (W) 19:52:19 145.860 - 145.880
Oscar 11 28 May 19:49:08 19:51:40 15° 60° (ENE) 19:54:10 .
CUTE 1.7 + AOD 2 28 May 19:53:53 19:58:10 76° 258° (WSW) 20:02:30 437.475
PCSat 28 May 19:55:21 20:00:46 88° 123° (ESE) 20:06:15 145.827
XW-2A 28 May 19:56:49 20:00:09 72° 258° (WSW) 20:03:34 145.665 - 145.685
XW-2B 28 May 19:57:39 19:58:38 11° 272° (W) 19:59:37 145.730 - 145.750
AAUSAT CUBESAT 2 28 May 19:57:45 20:01:38 39° 70° (ENE) 20:05:32 437.432
NUDT-PHONESAT 28 May 20:00:59 20:02:24 12° 271° (W) 20:03:50 437.300
ISS 28 May 20:02:39 20:04:54 17° 137° (SE) 20:07:09 437.550
AO-73 28 May 20:16:40 20:20:27 31° 67° (ENE) 20:24:19 145.935
ZACube-1 28 May 20:31:31 20:35:36 48° 71° (ENE) 20:39:50 437.345
SEEDS 28 May 20:39:38 20:43:37 38° 263° (W) 20:47:38 437.485
Tancredo 1 28 May 20:46:23 20:49:23 54° 149° (SSE) 20:52:25 437.200
CUBEBUG 2 28 May 20:53:32 20:57:24 36° 264° (W) 21:01:23 437.445
UWE-3 28 May 20:59:07 21:03:13 52° 261° (W) 21:07:28 435.000/436.395/437.385
EO-88 28 May 21:07:03 21:09:25 16° 64° (ENE) 21:11:47 145.990 - 145.960
STRAND 1 28 May 21:10:37 21:15:46 71° 288° (WNW) 21:20:54 437.568
Oscar 11 28 May 21:22:56 21:27:16 69° 258° (WSW) 21:31:39 .
HO-68 28 May 21:30:36 21:35:30 19° 272° (W) 21:40:26 435.675
DELFI C3 28 May 21:32:57 21:36:45 44° 71° (ENE) 21:40:33 145.870
AAUSAT CUBESAT 2 28 May 21:33:58 21:37:14 22° 267° (W) 21:40:30 437.432
FO-29 28 May 21:34:16 21:37:00 13° 85° (E) 21:39:50 435.910
ISS 28 May 21:37:43 21:41:01 90° 94° (E) 21:44:20 437.550
PCSat 28 May 21:40:41 21:44:54 22° 324° (NW) 21:49:09 145.827
SO-50 28 May 21:50:13 21:53:38 21° 113° (ESE) 21:57:03 436.795
AO-73 28 May 21:53:01 21:56:41 28° 266° (W) 22:00:28 145.935
ZACube-1 28 May 22:09:12 22:12:11 18° 270° (W) 22:15:15 437.345
M-CUBED/EXP-1 PRIME 28 May 22:17:26 22:20:46 89° 131° (SE) 22:24:00 437.505
Tancredo 1 28 May 22:22:16 22:25:14 41° 348° (NNW) 22:28:11 437.200
TIGRISAT 28 May 22:25:38 22:29:07 21° 92° (E) 22:32:38 435.000
PRISM 28 May 22:26:27 22:29:45 23° 94° (E) 22:33:01 437.425
EO-88 28 May 22:39:17 22:42:47 42° 261° (W) 22:46:19 145.990 - 145.960
STRAND 1 28 May 22:52:01 22:54:03 12° 307° (NW) 22:56:05 437.568
UNISAT 6 28 May 22:57:22 23:01:48 44° 98° (E) 23:06:16 437.425
DELFI C3 28 May 23:09:02 23:11:45 17° 268° (W) 23:14:28 145.870
ISS 28 May 23:14:38 23:17:46 38° 354° (N) 23:20:53 437.550
LO-87 28 May 23:15:10 23:18:41 67° 76° (ENE) 23:22:13 145.935 - 145.965
FO-29 28 May 23:16:32 23:22:58 68° 102° (ESE) 23:30:12 435.910
SO-50 28 May 23:29:13 23:33:44 58° 312° (NW) 23:38:14 436.795
YUBILEINY 28 May 23:30:08 23:32:49 12° 68° (ENE) 23:35:30 435.215
ESTCUBE 1 28 May 23:33:35 23:38:04 65° 73° (ENE) 23:42:35 437.505/2401.250
POLYITAN 1 28 May 23:51:44 23:53:22 12° 88° (E) 23:55:01 437.675
DUCHIFAT 1 28 May 23:55:36 23:56:07 10° 87° (E) 23:56:38 145.980
SPROUT 28 May 23:57:55 00:01:40 31° 67° (ENE) 00:05:27 437.525
Tancredo 1 28 May 23:58:28 00:01:23 37° 8° (N) 00:04:17 437.200
QB50P2 28 May 23:59:43 00:02:21 16° 90° (E) 00:04:57 145.880/145.840
PRISM 29 May 00:01:24 00:05:07 34° 292° (WNW) 00:08:46 437.425
TIGRISAT 29 May 00:01:35 00:06:02 49° 289° (WNW) 00:10:32 435.000
50 SAT 29 May 00:13:30 00:16:07 20° 66° (ENE) 00:18:44 437.505
VELOX 1 29 May 00:19:53 00:24:11 54° 71° (ENE) 00:28:30 145.980
RS-15 29 May 00:25:22 00:31:58 17° 94° (E) 00:38:38 29.354- 29.394
AIST 2D 29 May 00:26:53 00:30:24 53° 100° (E) 00:33:53 435.315
UNISAT 6 29 May 00:34:34 00:38:16 24° 296° (WNW) 00:42:00 437.425
EO-79 29 May 00:35:07 00:39:00 32° 96° (E) 00:42:51 145.935-145.965
UKube-1 29 May 00:36:53 00:40:15 23° 63° (ENE) 00:43:38 .
DX 1 29 May 00:48:23 00:52:26 40° 69° (ENE) 00:56:31 434.975-435.025
ISS 29 May 00:51:28 00:54:40 48° 14° (NNE) 00:57:53 437.550
FO-29 29 May 01:02:25 01:07:39 28° 299° (WNW) 01:13:23 435.910
SO-50 29 May 01:12:24 01:15:08 15° 333° (NNW) 01:17:51 436.795
ESTCUBE 1 29 May 01:12:39 01:15:19 15° 271° (W) 01:17:59 437.505/2401.250
PCSat 29 May 01:15:05 01:16:39 11° 17° (NNE) 01:18:13 145.827
NANOSAT C BR1 29 May 01:18:39 01:22:56 85° 106° (ESE) 01:27:11 145.865
YUBILEINY 29 May 01:19:05 01:27:32 58° 91° (E) 01:36:05 435.215
POLYITAN 1 29 May 01:25:23 01:29:41 76° 286° (WNW) 01:33:57 437.675
DUCHIFAT 1 29 May 01:28:07 01:32:23 86° 282° (WNW) 01:36:37 145.980
SPROUT 29 May 01:33:58 01:37:34 27° 265° (W) 01:41:14 437.525
Tancredo 1 29 May 01:34:14 01:37:19 76° 207° (SSW) 01:40:22 437.200
QB50P2 29 May 01:34:17 01:38:29 56° 288° (WNW) 01:42:40 145.880/145.840
BUGSAT 1 29 May 01:37:12 01:41:05 38° 98° (E) 01:45:00 437.445
50 SAT 29 May 01:45:48 01:48:49 28° 263° (W) 01:51:53 437.505
VELOX 1 29 May 01:58:00 02:00:58 17° 269° (W) 02:03:56 145.980
AIST 2D 29 May 02:01:27 02:03:11 13° 297° (WNW) 02:04:54 435.315
MOZHAYETS 4 29 May 02:02:51 02:04:05 11° 55° (NE) 02:05:18
ITUPSAT 1 29 May 02:06:31 02:10:03 21° 61° (ENE) 02:13:36 437.325
EO-79 29 May 02:11:02 02:14:40 27° 294° (WNW) 02:18:16 145.935-145.965
UKube-1 29 May 02:11:58 02:16:03 41° 261° (W) 02:20:09 .
DX 1 29 May 02:25:19 02:28:46 23° 266° (W) 02:32:13 434.975-435.025
ISS 29 May 02:28:01 02:31:11 45° 213° (SSW) 02:34:19 437.550
RS-15 29 May 02:29:56 02:41:49 65° 117° (ESE) 02:53:57 29.354- 29.394
BEESAT 29 May 02:37:24 02:41:47 38° 67° (ENE) 02:46:12 436.000
Gurwin Techsat 1B 29 May 02:43:24 02:48:24 40° 97° (E) 02:53:23 435.225
Oscar 19 29 May 02:47:06 02:52:16 68° 103° (ESE) 02:57:23 437.125/150
NANOSAT C BR1 29 May 02:56:16 02:58:01 12° 302° (WNW) 02:59:46 145.865
PCSat 29 May 02:57:10 03:01:56 30° 41° (NE) 03:06:40 145.827
DUCHIFAT 1 29 May 03:06:09 03:07:21 11° 303° (WNW) 03:08:32 145.980
Tancredo 1 29 May 03:11:08 03:12:36 13° 225° (SW) 03:14:04 437.200
BUGSAT 1 29 May 03:13:00 03:16:15 23° 295° (WNW) 03:19:31 437.445
YUBILEINY 29 May 03:16:52 03:24:47 37° 293° (WNW) 03:32:48 435.215
MOZHAYETS 4 29 May 03:35:48 03:40:24 74° 74° (ENE) 03:45:03
ITUPSAT 1 29 May 03:42:48 03:47:30 56° 259° (W) 03:52:14 437.325
ITAMSAT 1 29 May 03:54:13 03:58:35 26° 94° (E) 04:02:56 435.822/435.867
O/OREOS (USA 219) 29 May 04:05:20 04:09:48 53° 110° (ESE) 04:14:16 437.305
KKS-1 29 May 04:12:20 04:16:12 30° 66° (ENE) 04:20:04 437.445
BEESAT 29 May 04:15:33 04:19:38 28° 265° (W) 04:23:46 436.000
AO-7 29 May 04:16:56 04:24:45 42° 98° (E) 04:32:32 .
Gurwin Techsat 1B 29 May 04:23:33 04:28:15 32° 296° (WNW) 04:32:56 435.225
Oscar 19 29 May 04:27:25 04:31:05 20° 301° (WNW) 04:34:43 437.125/150
CUBESAT XI-V 29 May 04:28:17 04:32:49 49° 71° (ENE) 04:37:22 437.345
STARS 29 May 04:36:47 04:40:18 24° 64° (ENE) 04:43:50 437.465
SO-50 29 May 04:37:44 04:40:06 14° 24° (NNE) 04:42:27 436.795
PCSat 29 May 04:40:20 04:45:41 59° 242° (WSW) 04:51:00 145.827
RS-15 29 May 04:42:55 04:54:52 54° 323° (NW) 05:06:57 29.354- 29.394
BEESAT 3 29 May 04:46:28 04:49:20 19° 113° (ESE) 04:52:14 437.485
AO-85 29 May 05:06:57 05:11:05 83° 125° (SE) 05:15:03 145.980
MOZHAYETS 4 29 May 05:15:44 05:18:06 14° 272° (W) 05:20:29
ITAMSAT 1 29 May 05:33:16 05:38:16 47° 292° (WNW) 05:43:15 435.822/435.867
O/OREOS (USA 219) 29 May 05:45:54 05:49:31 22° 309° (NW) 05:53:09 437.305
KKS-1 29 May 05:48:46 05:52:43 31° 264° (W) 05:56:41 437.445
CUBESAT XI-V 29 May 06:06:53 06:10:27 21° 268° (W) 06:14:03 437.345
BEESAT 2 29 May 06:08:14 06:12:04 48° 121° (ESE) 06:15:59 435.950
CUTE-I 29 May 06:08:52 06:10:47 12° 86° (E) 06:12:41 437.470
AO-7 29 May 06:09:41 06:17:44 54° 299° (WNW) 06:25:46 .
STARS 29 May 06:12:23 06:16:27 39° 262° (W) 06:20:34 437.465
SO-50 29 May 06:17:15 06:21:38 48° 46° (NE) 06:26:01 436.795
BEESAT 3 29 May 06:22:42 06:26:35 51° 312° (NW) 06:30:32 437.485
DOVE 4 29 May 06:41:44 06:45:42 41° 98° (E) 06:49:47 437.250
LilacSat-2 29 May 06:44:47 06:48:04 25° 94° (E) 06:51:18 437.200
AO-85 29 May 06:49:15 06:51:57 17° 326° (NW) 06:54:38 145.980
STRAND 1 29 May 06:51:13 06:55:46 34° 65° (ENE) 07:00:20 437.568
RS-15 29 May 06:59:56 07:10:54 34° 356° (N) 07:21:44 29.354- 29.394
HO-68 29 May 07:06:07 07:09:41 14° 85° (E) 07:13:13 435.675
XW-2D 29 May 07:15:38 07:19:26 54° 100° (E) 07:23:12 145.860 - 145.880
XW-2B 29 May 07:23:38 07:27:29 65° 102° (ESE) 07:31:17 145.730 - 145.750
NUDT-PHONESAT 29 May 07:25:27 07:29:10 53° 100° (E) 07:32:51 437.300
M-CUBED/EXP-1 PRIME 29 May 07:32:27 07:35:29 21° 60° (ENE) 07:38:21 437.505
XW-2F 29 May 07:34:21 07:38:13 85° 100° (E) 07:42:03 145.980 - 146.000
CUTE 1.7 + AOD 2 29 May 07:36:47 07:39:19 15° 89° (E) 07:41:50 437.475
XW-2C 29 May 07:37:25 07:41:18 85° 284° (WNW) 07:45:09 145.795 - 145.815
KAITUO 1B 29 May 07:37:34 07:41:24 76° 102° (ESE) 07:45:10 145.475/437.950
CUTE-I 29 May 07:46:17 07:51:40 81° 104° (ESE) 07:57:01 437.470
BEESAT 2 29 May 07:46:41 07:50:03 25° 321° (NW) 07:53:27 435.950
SO-50 29 May 07:58:09 08:01:52 25° 245° (WSW) 08:05:35 436.795
BEESAT 3 29 May 08:03:22 08:05:06 12° 333° (NNW) 08:06:50 437.485
AO-7 29 May 08:04:03 08:08:43 16° 322° (NW) 08:13:22 .
LilacSat-2 29 May 08:18:56 08:22:19 29° 292° (WNW) 08:25:40 437.200
DOVE 4 29 May 08:20:04 08:23:13 21° 295° (WNW) 08:26:25 437.250
SEEDS 29 May 08:20:12 08:23:50 27° 94° (E) 08:27:26 437.485
STRAND 1 29 May 08:30:13 08:34:54 36° 263° (W) 08:39:37 437.568
CUBEBUG 2 29 May 08:40:16 08:44:33 36° 97° (E) 08:48:53 437.445
UWE-3 29 May 08:45:20 08:49:13 26° 94° (E) 08:53:08 435.000/436.395/437.385
NO-84 29 May 08:45:46 08:50:03 53° 140° (SE) 08:54:12 435.350 FM
XW-2A 29 May 08:48:03 08:51:31 76° 103° (ESE) 08:54:57 145.665 - 145.685
XW-2D 29 May 08:51:00 08:53:12 15° 298° (WNW) 08:55:24 145.860 - 145.880
HO-68 29 May 08:51:26 08:58:40 72° 105° (ESE) 09:05:51 435.675
XW-2B 29 May 08:59:24 09:01:10 13° 299° (WNW) 09:02:56 145.730 - 145.750
NUDT-PHONESAT 29 May 09:00:32 09:02:39 15° 298° (WNW) 09:04:47 437.300
M-CUBED/EXP-1 PRIME 29 May 09:05:50 09:09:45 41° 255° (WSW) 09:13:24 437.505
Oscar 11 29 May 09:07:48 09:10:48 18° 91° (E) 09:13:48 .
XW-2F 29 May 09:11:07 09:11:43 10° 301° (WNW) 09:12:20 145.980 - 146.000
CUTE 1.7 + AOD 2 29 May 09:11:20 09:15:32 57° 287° (WNW) 09:19:41 437.475
AAUSAT CUBESAT 2 29 May 09:11:42 09:15:42 46° 99° (E) 09:19:40 437.432
KAITUO 1B 29 May 09:13:42 09:14:49 11° 300° (WNW) 09:15:57 145.475/437.950
RS-15 29 May 09:15:32 09:27:19 46° 29° (NNE) 09:38:40 29.354- 29.394
PRISM 29 May 09:18:30 09:21:57 27° 66° (ENE) 09:25:25 437.425
TIGRISAT 29 May 09:27:25 09:30:55 25° 64° (ENE) 09:34:30 435.000
CUTE-I 29 May 09:27:35 09:31:04 18° 303° (WNW) 09:34:35 437.470
FO-29 29 May 09:33:33 09:38:16 36° 64° (ENE) 09:43:15 435.910
AO-73 29 May 09:36:44 09:41:07 44° 98° (E) 09:45:29 145.935
ZACube-1 29 May 09:52:15 09:56:49 70° 101° (E) 10:01:24 437.345
SEEDS 29 May 09:55:48 09:59:31 31° 293° (WNW) 10:03:14 437.485
UNISAT 6 29 May 09:59:06 10:03:18 53° 72° (ENE) 10:07:36 437.425
EO-88 29 May 10:06:10 10:07:58 13° 90° (E) 10:09:45 145.990 - 145.960
CUBEBUG 2 29 May 10:17:07 10:21:02 29° 294° (WNW) 10:25:03 437.445
UWE-3 29 May 10:21:29 10:25:45 39° 291° (WNW) 10:30:04 435.000/436.395/437.385
NO-84 29 May 10:23:37 10:27:48 43° 338° (NNW) 10:31:47 435.350 FM
HO-68 29 May 10:39:55 10:45:48 28° 305° (NW) 10:51:41 435.675
NANOSAT C BR1 29 May 10:41:03 10:42:27 11° 58° (ENE) 10:43:52 145.865
DELFI C3 29 May 10:41:19 10:45:07 46° 99° (E) 10:48:53 145.870
Oscar 11 29 May 10:43:00 10:47:14 50° 289° (WNW) 10:51:26 .
POLYITAN 1 29 May 10:47:12 10:49:30 15° 60° (ENE) 10:51:49 437.675
AAUSAT CUBESAT 2 29 May 10:47:54 10:50:51 19° 297° (WNW) 10:53:46 437.432
DUCHIFAT 1 29 May 10:49:46 10:51:36 13° 58° (ENE) 10:53:26 145.980
PRISM 29 May 10:53:27 10:57:09 31° 263° (W) 11:00:51 437.425
QB50P2 29 May 10:55:19 10:58:13 18° 62° (ENE) 11:01:09 145.880/145.840
TIGRISAT 29 May 11:03:28 11:07:27 37° 263° (W) 11:11:32 435.000
AIST 2D 29 May 11:04:10 11:07:18 31° 70° (ENE) 11:10:29 435.315
AO-73 29 May 11:13:29 11:17:05 24° 296° (WNW) 11:20:43 145.935
FO-29 29 May 11:18:51 11:23:28 32° 265° (W) 11:28:19 435.910
YUBILEINY 29 May 11:25:12 11:33:08 35° 66° (ENE) 11:41:00 435.215
ESTCUBE 1 29 May 11:25:24 11:26:30 11° 87° (E) 11:27:36 437.505/2401.250
RS-15 29 May 11:28:47 11:41:03 80° 237° (WSW) 11:52:42 29.354- 29.394
ZACube-1 29 May 11:29:46 11:32:35 16° 300° (WNW) 11:35:25 437.345
EO-79 29 May 11:30:19 11:34:09 36° 68° (ENE) 11:38:01 145.935-145.965
UNISAT 6 29 May 11:37:33 11:40:22 17° 270° (W) 11:43:15 437.425
EO-88 29 May 11:38:21 11:41:57 51° 288° (WNW) 11:45:31 145.990 - 145.960
AO-85 29 May 11:54:56 11:58:20 26° 40° (NE) 12:01:50 145.980
NO-84 29 May 12:02:29 12:06:08 27° 359° (N) 12:09:34 435.350 FM
LO-87 29 May 12:12:16 12:15:46 53° 101° (E) 12:19:15 145.935 - 145.965
NANOSAT C BR1 29 May 12:13:19 12:17:30 89° 253° (WSW) 12:21:44 145.865
DELFI C3 29 May 12:16:56 12:19:34 17° 297° (WNW) 12:22:11 145.870
POLYITAN 1 29 May 12:20:35 12:24:46 68° 258° (WSW) 12:28:59 437.675
DUCHIFAT 1 29 May 12:22:30 12:26:39 79° 257° (WSW) 12:30:52 145.980
Oscar 19 29 May 12:29:28 12:33:20 22° 60° (ENE) 12:37:14 437.125/150
QB50P2 29 May 12:29:34 12:33:39 50° 260° (W) 12:37:47 145.880/145.840
BUGSAT 1 29 May 12:29:44 12:33:29 39° 69° (ENE) 12:37:15 437.445
Gurwin Techsat 1B 29 May 12:30:45 12:33:40 15° 55° (NE) 12:36:37 435.225
O/OREOS (USA 219) 29 May 12:33:22 12:37:05 24° 51° (NE) 12:40:46 437.305
AIST 2D 29 May 12:37:58 12:40:35 19° 267° (W) 12:43:14 435.315
BEESAT 2 29 May 12:45:58 12:48:34 16° 32° (NNE) 12:51:11 435.950
BEESAT 3 29 May 12:59:11 13:02:56 35° 44° (NE) 13:06:37 437.485
ESTCUBE 1 29 May 12:59:25 13:03:58 88° 286° (WNW) 13:08:28 437.505/2401.250
50 SAT 29 May 13:06:27 13:08:06 13° 91° (E) 13:09:45 437.505
EO-79 29 May 13:06:37 13:10:00 23° 266° (W) 13:13:25 145.935-145.965
SPROUT 29 May 13:15:37 13:19:39 38° 98° (E) 13:23:39 437.525
YUBILEINY 29 May 13:21:49 13:30:31 63° 268° (W) 13:39:09 435.215
AO-7 29 May 13:30:06 13:35:51 21° 44° (NE) 13:41:38 .
AO-85 29 May 13:35:01 13:38:52 44° 239° (WSW) 13:42:54 145.980
NO-84 29 May 13:40:38 13:44:30 40° 20° (NNE) 13:48:04 435.350 FM
VELOX 1 29 May 13:42:47 13:47:11 70° 102° (ESE) 13:51:34 145.980
RS-15 29 May 13:42:59 13:51:27 23° 262° (W) 13:59:43 29.354- 29.394
LO-87 29 May 13:47:05 13:48:47 13° 298° (WNW) 13:50:30 145.935 - 145.965
UKube-1 29 May 13:55:51 13:59:24 24° 94° (E) 14:02:56 .
BUGSAT 1 29 May 14:06:03 14:09:00 20° 267° (W) 14:11:59 437.445
Oscar 19 29 May 14:07:05 14:12:14 62° 258° (WSW) 14:17:25 437.125/150
Gurwin Techsat 1B 29 May 14:07:31 14:12:50 85° 74° (ENE) 14:18:12 435.225
DX 1 29 May 14:09:03 14:13:15 47° 100° (E) 14:17:26 434.975-435.025
O/OREOS (USA 219) 29 May 14:12:24 14:16:43 46° 251° (WSW) 14:21:00 437.305
BEESAT 2 29 May 14:22:53 14:26:59 81° 52° (NE) 14:31:02 435.950
BEESAT 3 29 May 14:36:55 14:40:27 30° 243° (WSW) 14:43:56 437.485
50 SAT 29 May 14:37:57 14:41:13 43° 288° (WNW) 14:44:26 437.505
ESTCUBE 1 29 May 14:38:11 14:40:04 12° 303° (WNW) 14:41:56 437.505/2401.250
SPROUT 29 May 14:51:56 14:55:21 24° 296° (WNW) 14:58:47 437.525
ITAMSAT 1 29 May 15:15:02 15:20:04 55° 70° (ENE) 15:25:08 435.822/435.867
NO-84 29 May 15:18:24 15:22:11 50° 221° (SW) 15:25:39 435.350 FM
AO-7 29 May 15:19:04 15:27:18 72° 66° (ENE) 15:35:35 .
VELOX 1 29 May 15:20:35 15:23:07 15° 301° (WNW) 15:25:39 145.980
YUBILEINY 29 May 15:21:45 15:25:22 13° 290° (WNW) 15:29:00 435.215
MOZHAYETS 4 29 May 15:29:04 15:31:33 14° 88° (E) 15:33:59
UKube-1 29 May 15:31:34 15:35:31 36° 292° (WNW) 15:39:28 .
ITUPSAT 1 29 May 15:40:12 15:44:24 29° 95° (E) 15:48:35 437.325
DX 1 29 May 15:45:56 15:49:08 21° 298° (WNW) 15:52:20 434.975-435.025
Gurwin Techsat 1B 29 May 15:50:37 15:53:29 15° 272° (W) 15:56:21 435.225
BEESAT 2 29 May 16:02:29 16:04:08 12° 250° (WSW) 16:05:46 435.950
BEESAT 29 May 16:11:23 16:16:09 57° 101° (E) 16:20:52 436.000
ITAMSAT 1 29 May 16:55:54 16:59:52 22° 268° (W) 17:03:52 435.822/435.867
MOZHAYETS 4 29 May 17:04:34 17:09:13 73° 287° (WNW) 17:13:51
AO-7 29 May 17:13:50 17:20:45 29° 267° (W) 17:27:46 .
ITUPSAT 1 29 May 17:17:52 17:22:17 38° 293° (WNW) 17:26:43 437.325
LilacSat-2 29 May 17:29:52 17:32:47 21° 65° (ENE) 17:35:43 437.200
CUTE-I 29 May 17:32:33 17:37:00 28° 62° (ENE) 17:41:28 437.470
KKS-1 29 May 17:35:52 17:40:00 37° 98° (E) 17:44:07 437.445
HO-68 29 May 17:38:47 17:43:22 19° 48° (NE) 17:47:58 435.675
PCSat 29 May 17:46:44 17:47:34 10° 101° (E) 17:48:23 145.827
DOVE 4 29 May 17:50:00 17:54:26 61° 73° (ENE) 17:58:39 437.250
BEESAT 29 May 17:50:00 17:53:32 21° 299° (WNW) 17:57:02 436.000
